| time (UTC) | temp F | wind direction | speed MPH | gust MPH | rain 1hr in | rain 24hr in | rain mn in | humidity % | barometer mb |
| 20260503185050 | 62 | 234 | 2.0 | 2.0 | 0.00 | 0.00 | 0.00 | 36 | 1021.1 |
| 20260503184546 | 62 | 318 | 2.0 | 2.0 | 0.00 | 0.00 | 0.00 | 38 | 1021.1 |
| 20260503184043 | 61 | 228 | 2.0 | 2.0 | 0.00 | 0.00 | 0.00 | 42 | 1021.1 |
| 20260503183540 | 61 | 72 | 0.0 | 0.0 | 0.00 | 0.00 | 0.00 | 36 | 1021.1 |
| 20260503183037 | 61 | 252 | 2.0 | 2.0 | 0.00 | 0.00 | 0.00 | 41 | 1021.4 |
| 20260503182536 | 62 | 216 | 3.0 | 3.0 | 0.00 | 0.00 | 0.00 | 39 | 1021.4 |
| 20260503182033 | 61 | 204 | 0.0 | 0.0 | 0.00 | 0.00 | 0.00 | 38 | 1021.4 |
| 20260503181530 | 60 | 216 | 0.0 | 0.0 | 0.00 | 0.00 | 0.00 | 42 | 1021.4 |
| 20260503181026 | 62 | 210 | 2.0 | 2.0 | 0.00 | 0.00 | 0.00 | 40 | 1021.4 |
| 20260503180524 | 61 | 210 | 2.0 | 2.0 | 0.00 | 0.00 | 0.00 | 40 | 1021.4 |
| 20260503180021 | 61 | 290 | 0.0 | 0.0 | 0.00 | 0.00 | 0.00 | 42 | 1021.8 |
| 20260503175518 | 61 | 216 | 2.0 | 2.0 | 0.00 | 0.00 | 0.00 | 40 | 1021.8 |
| 20260503175015 | 61 | 216 | 2.0 | 2.0 | 0.00 | 0.00 | 0.00 | 38 | 1021.8 |
| 20260503174513 | 61 | 192 | 3.0 | 3.0 | 0.00 | 0.00 | 0.00 | 36 | 1022.1 |
| 20260503174008 | 61 | 206 | 2.0 | 2.0 | 0.00 | 0.00 | 0.00 | 42 | 1022.1 |
| 20260503173503 | 60 | 204 | 2.0 | 2.0 | 0.00 | 0.00 | 0.00 | 38 | 1022.1 |
| 20260503173000 | 61 | 150 | 3.0 | 3.0 | 0.00 | 0.00 | 0.00 | 36 | 1022.8 |
| 20260503172458 | 60 | 180 | 0.0 | 0.0 | 0.00 | 0.00 | 0.00 | 42 | 1022.8 |
| 20260503171954 | 60 | 222 | 0.0 | 0.0 | 0.00 | 0.00 | 0.00 | 36 | 1022.8 |
| 20260503171451 | 60 | 66 | 2.0 | 2.0 | 0.00 | 0.00 | 0.00 | 38 | 1022.8 |
| 20260503170949 | 60 | 240 | 2.0 | 2.0 | 0.00 | 0.00 | 0.00 | 41 | 1022.8 |
| 20260503170445 | 60 | 204 | 2.0 | 2.0 | 0.00 | 0.00 | 0.00 | 36 | 1022.8 |
| 20260503150837 | 61 | 167 | 0.0 | 0.0 | 0.00 | 0.00 | 0.00 | 40 | 1023.5 |
| 20260503150333 | 60 | 198 | 2.0 | 2.0 | 0.00 | 0.00 | 0.00 | 44 | 1023.5 |
| 20260503140257 | 57 | 204 | 0.0 | 0.0 | 0.00 | 0.00 | 0.00 | 45 | 1023.5 |
| 20260503131227 | 53 | 192 | 1.0 | 1.0 | 0.00 | 0.00 | 0.00 | 57 | 1023.5 |
| 20260503130725 | 53 | 294 | 0.0 | 0.0 | 0.00 | 0.00 | 0.00 | 55 | 1023.5 |
| 20260503130222 | 53 | 205 | 0.0 | 0.0 | 0.00 | 0.00 | 0.00 | 56 | 1023.5 |
| 20260503120147 | 43 | 50 | 0.0 | 0.0 | 0.00 | 0.00 | 0.00 | 72 | 1023.1 |
| 20260503110615 | 30 | 203 | 0.0 | 0.0 | 0.00 | 0.00 | 0.00 | 95 | 1022.8 |
| 20260503110113 | 30 | 203 | 0.0 | 0.0 | 0.00 | 0.00 | 0.00 | 95 | 1022.8 |
| 20260503090502 | 31 | 214 | 0.0 | 0.0 | 0.00 | 0.00 | 0.00 | 95 | 1022.4 |
| 20260503081428 | 32 | 192 | 0.0 | 0.0 | 0.00 | 0.00 | 0.00 | 94 | 1022.1 |
| 20260503080926 | 32 | 192 | 0.0 | 0.0 | 0.00 | 0.00 | 0.00 | 94 | 1022.1 |
| 20260503080422 | 32 | 192 | 0.0 | 0.0 | 0.00 | 0.00 | 0.00 | 94 | 1022.1 |
| 20260503072858 | 32 | 208 | 0.0 | 0.0 | 0.00 | 0.00 | 0.00 | 94 | 1021.8 |
| 20260503072355 | 33 | 208 | 0.0 | 0.0 | 0.00 | 0.00 | 0.00 | 94 | 1021.8 |
| 20260503071852 | 33 | 208 | 0.0 | 0.0 | 0.00 | 0.00 | 0.00 | 93 | 1021.8 |
| 20260503071349 | 33 | 207 | 0.0 | 0.0 | 0.00 | 0.00 | 0.00 | 94 | 1022.1 |
| 20260503070845 | 33 | 207 | 0.0 | 0.0 | 0.00 | 0.00 | 0.00 | 93 | 1022.1 |
| 20260503070343 | 33 | 207 | 0.0 | 0.0 | 0.00 | 0.00 | 0.00 | 93 | 1022.1 |
| 20260503060303 | 35 | 217 | 0.0 | 0.0 | 0.00 | 0.00 | 0.00 | 89 | 1022.1 |
| 20260503054749 | 35 | 216 | 0.0 | 0.0 | 0.00 | 0.00 | 0.00 | 88 | 1022.1 |
| 20260503054246 | 36 | 215 | 0.0 | 0.0 | 0.00 | 0.00 | 0.00 | 88 | 1022.1 |
| 20260503053744 | 36 | 192 | 0.0 | 0.0 | 0.00 | 0.00 | 0.00 | 87 | 1022.1 |
| 20260503053237 | 36 | 191 | 0.0 | 0.0 | 0.00 | 0.00 | 0.00 | 86 | 1022.1 |
| 20260503052732 | 37 | 191 | 0.0 | 0.0 | 0.00 | 0.00 | 0.00 | 86 | 1022.1 |
| 20260503052229 | 37 | 191 | 0.0 | 0.0 | 0.00 | 0.00 | 0.00 | 86 | 1022.1 |
| 20260503051724 | 37 | 169 | 0.0 | 0.0 | 0.00 | 0.00 | 0.00 | 85 | 1022.1 |
| 20260503051222 | 38 | 157 | 0.0 | 0.0 | 0.00 | 0.00 | 0.00 | 84 | 1022.1 |
| 20260503050718 | 38 | 156 | 0.0 | 0.0 | 0.00 | 0.00 | 0.00 | 82 | 1022.1 |
| 20260503050215 | 38 | 156 | 0.0 | 0.0 | 0.00 | 0.00 | 0.00 | 82 | 1022.1 |
| 20260503045713 | 39 | 133 | 0.0 | 0.0 | 0.00 | 0.00 | 0.00 | 80 | 1022.1 |
| 20260503045210 | 40 | 133 | 0.0 | 0.0 | 0.00 | 0.00 | 0.00 | 80 | 1022.1 |
| 20260503044707 | 40 | 130 | 0.0 | 0.0 | 0.00 | 0.00 | 0.00 | 79 | 1022.1 |
| 20260503044204 | 41 | 130 | 0.0 | 0.0 | 0.00 | 0.00 | 0.00 | 78 | 1022.1 |
| 20260503043700 | 42 | 126 | 0.0 | 0.0 | 0.00 | 0.00 | 0.00 | 69 | 1022.1 |
| 20260503043158 | 42 | 277 | 0.0 | 0.0 | 0.00 | 0.00 | 0.00 | 67 | 1022.1 |
| 20260503042654 | 42 | 54 | 2.0 | 2.0 | 0.00 | 0.00 | 0.00 | 67 | 1022.1 |
| 20260503042150 | 42 | 8 | 2.0 | 2.0 | 0.00 | 0.00 | 0.00 | 67 | 1022.1 |
| 20260503041646 | 43 | 0 | 0.0 | 0.0 | 0.00 | 0.00 | 0.00 | 67 | 1022.1 |
| 20260503041145 | 43 | 60 | 0.0 | 0.0 | 0.00 | 0.00 | 0.00 | 66 | 1022.1 |
| 20260503040642 | 43 | 36 | 0.0 | 0.0 | 0.00 | 0.00 | 0.00 | 65 | 1022.1 |
| 20260503040140 | 44 | 342 | 0.0 | 0.0 | 0.00 | 0.00 | 0.00 | 64 | 1022.1 |
| 20260503035635 | 44 | 288 | 2.0 | 2.0 | 0.00 | 0.00 | 0.00 | 64 | 1022.1 |
| 20260503035134 | 45 | 282 | 0.0 | 0.0 | 0.00 | 0.00 | 0.00 | 62 | 1022.1 |
| 20260503034631 | 45 | 6 | 1.0 | 1.0 | 0.00 | 0.00 | 0.00 | 63 | 1022.1 |
| 20260503034128 | 45 | 295 | 2.0 | 2.0 | 0.00 | 0.00 | 0.00 | 63 | 1022.1 |
| 20260503033625 | 44 | 296 | 2.0 | 2.0 | 0.00 | 0.00 | 0.00 | 62 | 1022.1 |
| 20260503033122 | 44 | 336 | 2.0 | 2.0 | 0.00 | 0.00 | 0.00 | 64 | 1022.1 |
| 20260503032621 | 44 | 0 | 0.0 | 0.0 | 0.00 | 0.00 | 0.00 | 65 | 1021.8 |
| 20260503032119 | 43 | 318 | 2.0 | 2.0 | 0.00 | 0.00 | 0.00 | 66 | 1021.8 |
| 20260503031616 | 42 | 316 | 0.0 | 0.0 | 0.00 | 0.00 | 0.00 | 68 | 1021.8 |
| 20260503031113 | 42 | 312 | 0.0 | 0.0 | 0.00 | 0.00 | 0.00 | 70 | 1022.1 |
| 20260503030609 | 41 | 354 | 1.0 | 1.0 | 0.00 | 0.00 | 0.00 | 72 | 1022.1 |
| 20260503030106 | 41 | 252 | 0.0 | 0.0 | 0.00 | 0.00 | 0.00 | 81 | 1022.1 |
| 20260503025603 | 42 | 252 | 0.0 | 0.0 | 0.00 | 0.00 | 0.00 | 78 | 1021.4 |
| 20260503025101 | 42 | 252 | 0.0 | 0.0 | 0.00 | 0.00 | 0.00 | 77 | 1021.4 |
| 20260503024556 | 44 | 252 | 0.0 | 0.0 | 0.00 | 0.00 | 0.00 | 76 | 1021.4 |
| 20260503024054 | 44 | 252 | 0.0 | 0.0 | 0.00 | 0.00 | 0.00 | 76 | 1021.4 |
| 20260503023551 | 44 | 270 | 2.0 | 2.0 | 0.00 | 0.00 | 0.00 | 64 | 1021.4 |
| 20260503023048 | 43 | 294 | 1.0 | 1.0 | 0.00 | 0.00 | 0.00 | 65 | 1021.4 |
| 20260503022544 | 42 | 31 | 2.0 | 2.0 | 0.00 | 0.00 | 0.00 | 71 | 1021.1 |
| 20260503022039 | 42 | 224 | 0.0 | 0.0 | 0.00 | 0.00 | 0.00 | 79 | 1021.1 |
| 20260503021536 | 43 | 234 | 0.0 | 0.0 | 0.00 | 0.00 | 0.00 | 79 | 1021.1 |
| 20260503021033 | 43 | 234 | 0.0 | 0.0 | 0.00 | 0.00 | 0.00 | 78 | 1021.1 |
| 20260503020530 | 44 | 236 | 0.0 | 0.0 | 0.00 | 0.00 | 0.00 | 77 | 1021.1 |
| 20260503020027 | 43 | 270 | 0.0 | 0.0 | 0.00 | 0.00 | 0.00 | 68 | 1021.1 |
| 20260503015523 | 43 | 207 | 0.0 | 0.0 | 0.00 | 0.00 | 0.00 | 74 | 1021.1 |
| 20260503015021 | 43 | 203 | 0.0 | 0.0 | 0.00 | 0.00 | 0.00 | 76 | 1021.1 |
| 20260503014517 | 44 | 211 | 0.0 | 0.0 | 0.00 | 0.00 | 0.00 | 74 | 1021.1 |
| 20260503014015 | 44 | 216 | 0.0 | 0.0 | 0.00 | 0.00 | 0.00 | 74 | 1020.7 |
| 20260503013512 | 45 | 217 | 0.0 | 0.0 | 0.00 | 0.00 | 0.00 | 72 | 1020.7 |
| 20260503013009 | 45 | 216 | 0.0 | 0.0 | 0.00 | 0.00 | 0.00 | 71 | 1020.7 |
| 20260503012507 | 46 | 186 | 0.0 | 0.0 | 0.00 | 0.00 | 0.00 | 73 | 1020.4 |
| 20260503012002 | 46 | 192 | 0.0 | 0.0 | 0.00 | 0.00 | 0.00 | 72 | 1020.4 |
| 20260503011500 | 47 | 210 | 0.0 | 0.0 | 0.00 | 0.00 | 0.00 | 73 | 1020.4 |
| 20260503010957 | 46 | 131 | 0.0 | 0.0 | 0.00 | 0.00 | 0.00 | 66 | 1020.4 |
| 20260503010453 | 46 | 217 | 0.0 | 0.0 | 0.00 | 0.00 | 0.00 | 71 | 1020.4 |
| 20260503005950 | 46 | 217 | 0.0 | 0.0 | 0.00 | 0.00 | 0.00 | 72 | 1020.1 |
| 20260503005448 | 47 | 217 | 0.0 | 0.0 | 0.00 | 0.00 | 0.00 | 72 | 1020.1 |
| 20260503004944 | 47 | 217 | 0.0 | 0.0 | 0.00 | 0.00 | 0.00 | 70 | 1020.1 |
| 20260503004441 | 47 | 216 | 0.0 | 0.0 | 0.00 | 0.00 | 0.00 | 69 | 1020.1 |
| 20260503003939 | 47 | 216 | 0.0 | 0.0 | 0.00 | 0.00 | 0.00 | 67 | 1020.1 |
| 20260503003435 | 47 | 216 | 0.0 | 0.0 | 0.00 | 0.00 | 0.00 | 67 | 1020.1 |
| 20260503002933 | 48 | 216 | 0.0 | 0.0 | 0.00 | 0.00 | 0.00 | 66 | 1020.1 |
| 20260503002430 | 48 | 220 | 0.0 | 0.0 | 0.00 | 0.00 | 0.00 | 62 | 1020.1 |
| 20260503001926 | 49 | 199 | 0.0 | 0.0 | 0.00 | 0.00 | 0.00 | 61 | 1020.1 |
| 20260503001422 | 49 | 198 | 0.0 | 0.0 | 0.00 | 0.00 | 0.00 | 60 | 1019.6 |
| 20260503000920 | 50 | 159 | 0.0 | 0.0 | 0.00 | 0.00 | 0.00 | 58 | 1019.6 |
| 20260503000417 | 51 | 222 | 0.0 | 0.0 | 0.00 | 0.00 | 0.00 | 59 | 1019.6 |
| 20260502235914 | 51 | 229 | 0.0 | 0.0 | 0.00 | 0.00 | 0.00 | 56 | 1019.3 |
| 20260502235411 | 51 | 252 | 0.0 | 0.0 | 0.00 | 0.00 | 0.00 | 53 | 1019.3 |
| 20260502234909 | 52 | 264 | 0.0 | 0.0 | 0.00 | 0.00 | 0.00 | 56 | 1019.3 |
| 20260502234405 | 52 | 270 | 4.0 | 4.0 | 0.00 | 0.00 | 0.00 | 51 | 1019.3 |
| 20260502233903 | 51 | 228 | 2.0 | 2.0 | 0.00 | 0.00 | 0.00 | 55 | 1019.3 |
| 20260502233358 | 52 | 234 | 0.0 | 0.0 | 0.00 | 0.00 | 0.00 | 57 | 1019.3 |
| 20260502232855 | 52 | 324 | 0.0 | 0.0 | 0.00 | 0.00 | 0.00 | 58 | 1019.3 |
| 20260502232351 | 52 | 133 | 2.0 | 2.0 | 0.00 | 0.00 | 0.00 | 52 | 1019.3 |
| 20260502231848 | 53 | 252 | 2.0 | 2.0 | 0.00 | 0.00 | 0.00 | 52 | 1019.3 |
| 20260502231346 | 53 | 210 | 2.0 | 2.0 | 0.00 | 0.00 | 0.00 | 51 | 1019.3 |
| 20260502230844 | 53 | 314 | 2.0 | 2.0 | 0.00 | 0.00 | 0.00 | 50 | 1019.3 |
| 20260502230342 | 53 | 263 | 2.0 | 2.0 | 0.00 | 0.00 | 0.00 | 50 | 1019.3 |
| 20260502225838 | 53 | 168 | 0.0 | 0.0 | 0.00 | 0.00 | 0.00 | 54 | 1019.3 |
| 20260502225335 | 53 | 318 | 1.0 | 1.0 | 0.00 | 0.00 | 0.00 | 52 | 1019.3 |
| 20260502224832 | 53 | 222 | 3.0 | 3.0 | 0.00 | 0.00 | 0.00 | 51 | 1019.3 |
| 20260502224328 | 53 | 300 | 3.0 | 3.0 | 0.00 | 0.00 | 0.00 | 53 | 1019.3 |
| 20260502223825 | 53 | 297 | 4.0 | 5.0 | 0.00 | 0.00 | 0.00 | 48 | 1019.3 |
| 20260502223323 | 53 | 302 | 2.0 | 2.0 | 0.00 | 0.00 | 0.00 | 49 | 1019.3 |
| 20260502222821 | 53 | 222 | 1.0 | 1.0 | 0.00 | 0.00 | 0.00 | 50 | 1019.6 |
| 20260502222318 | 53 | 282 | 2.0 | 2.0 | 0.00 | 0.00 | 0.00 | 49 | 1019.6 |
| 20260502221814 | 53 | 282 | 2.0 | 2.0 | 0.00 | 0.00 | 0.00 | 50 | 1019.6 |
| 20260502221310 | 54 | 284 | 2.0 | 2.0 | 0.00 | 0.00 | 0.00 | 51 | 1019.3 |
| 20260502220808 | 54 | 240 | 0.0 | 0.0 | 0.00 | 0.00 | 0.00 | 54 | 1019.3 |
| 20260502220303 | 54 | 288 | 2.0 | 2.0 | 0.00 | 0.00 | 0.00 | 48 | 1019.3 |
| 20260502215800 | 54 | 313 | 4.0 | 4.0 | 0.00 | 0.00 | 0.00 | 47 | 1019.3 |
| 20260502215257 | 54 | 275 | 4.0 | 4.0 | 0.00 | 0.00 | 0.00 | 47 | 1019.3 |
| 20260502214754 | 54 | 168 | 2.0 | 2.0 | 0.00 | 0.00 | 0.00 | 47 | 1019.3 |
| 20260502214251 | 54 | 274 | 5.0 | 6.0 | 0.00 | 0.00 | 0.00 | 46 | 1019.3 |
| 20260502213748 | 54 | 33 | 3.0 | 3.0 | 0.00 | 0.00 | 0.00 | 47 | 1019.3 |
| 20260502213245 | 54 | 288 | 6.0 | 6.0 | 0.00 | 0.00 | 0.00 | 46 | 1019.3 |
| 20260502212744 | 54 | 294 | 6.0 | 6.0 | 0.00 | 0.00 | 0.00 | 46 | 1019.3 |
| 20260502212242 | 54 | 318 | 4.0 | 4.0 | 0.00 | 0.00 | 0.00 | 51 | 1019.3 |
| 20260502211737 | 54 | 246 | 2.0 | 2.0 | 0.00 | 0.00 | 0.00 | 47 | 1019.3 |
| 20260502211235 | 54 | 288 | 4.0 | 4.0 | 0.00 | 0.00 | 0.00 | 47 | 1019.3 |
| 20260502210731 | 54 | 294 | 2.0 | 2.0 | 0.00 | 0.00 | 0.00 | 47 | 1019.3 |
| 20260502210223 | 53 | 270 | 5.0 | 5.0 | 0.00 | 0.00 | 0.00 | 47 | 1019.3 |
| 20260502205720 | 53 | 306 | 5.0 | 5.0 | 0.00 | 0.00 | 0.00 | 46 | 1019.3 |
| 20260502205216 | 53 | 354 | 5.0 | 5.0 | 0.00 | 0.00 | 0.00 | 48 | 1019.3 |
| 20260502204714 | 53 | 270 | 7.0 | 8.0 | 0.00 | 0.00 | 0.00 | 50 | 1019.3 |
| 20260502204212 | 53 | 318 | 2.0 | 2.0 | 0.00 | 0.00 | 0.00 | 51 | 1019.3 |
| 20260502203709 | 53 | 318 | 4.0 | 4.0 | 0.00 | 0.00 | 0.00 | 50 | 1019.3 |
| 20260502203207 | 53 | 324 | 3.0 | 3.0 | 0.00 | 0.00 | 0.00 | 50 | 1019.3 |
| 20260502202700 | 53 | 294 | 5.0 | 5.0 | 0.00 | 0.00 | 0.00 | 48 | 1019.6 |
| 20260502202159 | 53 | 330 | 4.0 | 4.0 | 0.00 | 0.00 | 0.00 | 50 | 1019.6 |
| 20260502201656 | 53 | 288 | 6.0 | 6.0 | 0.00 | 0.00 | 0.00 | 50 | 1019.6 |
| 20260502201152 | 53 | 20 | 4.0 | 4.0 | 0.00 | 0.00 | 0.00 | 51 | 1019.6 |
| 20260502200648 | 53 | 270 | 2.0 | 2.0 | 0.00 | 0.00 | 0.00 | 52 | 1019.6 |
| 20260502200145 | 53 | 312 | 6.0 | 6.0 | 0.00 | 0.00 | 0.00 | 51 | 1019.6 |
| 20260502195643 | 54 | 340 | 8.0 | 9.0 | 0.00 | 0.00 | 0.00 | 51 | 1019.6 |
| 20260502195139 | 56 | 37 | 4.0 | 4.0 | 0.00 | 0.00 | 0.00 | 51 | 1019.6 |
| 20260502194636 | 56 | 246 | 1.0 | 1.0 | 0.00 | 0.00 | 0.00 | 54 | 1019.6 |
| 20260502194133 | 56 | 66 | 3.0 | 3.0 | 0.00 | 0.00 | 0.00 | 49 | 1019.6 |
| 20260502193629 | 56 | 270 | 2.0 | 2.0 | 0.00 | 0.00 | 0.00 | 51 | 1019.6 |
| 20260502193126 | 55 | 288 | 4.0 | 4.0 | 0.00 | 0.00 | 0.00 | 46 | 1019.6 |
| 20260502192621 | 55 | 312 | 3.0 | 3.0 | 0.00 | 0.00 | 0.00 | 48 | 1019.6 |
| 20260502192119 | 55 | 300 | 1.0 | 1.0 | 0.00 | 0.00 | 0.00 | 49 | 1019.6 |
| 20260502191616 | 54 | 302 | 2.0 | 2.0 | 0.00 | 0.00 | 0.00 | 49 | 1019.6 |
| 20260502191113 | 55 | 212 | 2.0 | 2.0 | 0.00 | 0.00 | 0.00 | 52 | 1019.6 |
| 20260502190611 | 54 | 89 | 1.0 | 1.0 | 0.00 | 0.00 | 0.00 | 48 | 1019.6 |
| 20260502190108 | 54 | 324 | 5.0 | 5.0 | 0.00 | 0.00 | 0.00 | 47 | 1019.6 |
| 20260502185603 | 55 | 306 | 2.0 | 2.0 | 0.00 | 0.00 | 0.00 | 51 | 1020.1 |